SCP
-0 -0 -0 -0 0 0 0 0 0 0 0 0 0 0 0 0 0 0 0 0 0 0 0 0 0 0 0 0 0 0 0 0 0 0 0 0 0 0 0 0 0 0 0 0 0 0 0
0 0 0 0 0 0 0 0 0 0 0 0 0 0 0 0 0 0 0 0 0 0 0 0 0 0 0 0 0 0 0 0 0 0 0 0 0 0 0 0 0 0 0 0 0 0 0
0 0 0 0 0 0 0 0 0 0 0 0 0 0 0 0 0 0 0 0 0 0 0 0 0 0 0 0 0 0 0 0 0 0 0 0 0 0 0 0 0 0 0 0 0 0 0
0 0 0 0 0 0 0 0 0 0 0 0 0 0 0 0 0 0 0 0 0 0 0 0 0 0 0 -0 0 0 0 0 0 0 0 0 0 0 0 0 0 0 0 0 0 0 0
0 0 0 0 0 0 0 0 0 0 0 0 0 0 0 0 0 0 0 0 0 0 0 -0 0 0 -0 0 0 0 0 0 0 0 0 0 0 0 0 0 0 0 0 0 0 0 0
0 0 0 0 0 0 0 0 0 0 0 0 0 0 0 0 0 0 0 0 -0 -0 -0 -0 0 0 0 0 0 0 0 0 0 0 0 0 0 0 0 0 0 0 0 0 0 0 0
0 0 0 0 0 0 0 0 0 0 0 0 0 0 0 0 0 0 0 0 0 0 0 0 0 0 0 0 0 0 0 0 0 0 0 0 0 0 0 0 0 0 0 0 0 0 0
0 0 0 0 0 0 0 0 0 0 0 0 0 0 0 0 0 0 0 0 0 0 0 0 0 0 0 0 0 0 0 0 0 0 0 0 0 0 0 0 0 0 0 0 0 0 0
0 0 0 0 0 0 0 0 0 0 0 0 0 0 0 0 0 0 0 0 0 0 -0 0 0 0 0 0 0 0 0 0 0 0 0 0 0 0 0 0 0 0 0 0 0 0 0
-0 0 0 0 0 0 0 0 0 -0 -0 0 0 0 0 0 0 0 0 0 0 0 -0 -0 0 0 0 0 0 0 0 0 0 0 0 0 0 0 0 0 0 0 0 0 0 0 0
0 0 -0 0 0 0 0 -0 -0 -0 -0 0 0 0 0 0 0 0 0 0 0 0 0 0 0 0 0 -0 0 0 0 0 0 0 0 0 0 0 0 0 0 0 0 0 0 0 0
0 0 0 0 0 0 0 -0 -0 -0 0 0 0 0 0 0 0 0 0 0 0 0 0 0 0 0 0 0 0 0 0 0 0 0 0 0 0 0 0 0 0 0 0 0 0 0 0
0 0 0 0 0 -0 -0 -0 0 0 0 0 0 0 0 0 0 0 0 0 0 0 0 0 0 0 0 -0 0 0 0 0 0 0 0 0 0 0 0 0 0 0 0 0 0 0 0
0 0 0 0 0 0 0 0 0 0 0 0 0 0 0 0 0 0 0 0 0 0 0 0 0 0 0 -0 -0 0 0 0 0 0 0 0 0 0 0 0 0 0 0 0 0 0 0
0 0 0 0 0 0 0 0 0 0 0 0 0 0 0 0 0 0 0 -0 0 0 0 0 0 0 0 -0 -0 -0 0 0 0 0 0 0 0 0 0 0 0 0 0 0 0 0 0
0 0 0 0 0 0 0 0 0 0 0 0 0 0 0 0 0 0 0 0 0 0 -0 0 0 0 0 -0 -0 -0 0 0 0 0 0 0 0 0 0 0 0 0 0 0 0 0 0
0 0 0 0 0 0 0 0 0 0 0 0 0 0 0 0 0 0 0 0 -0 0 -0 -0 0 0 0 0 -0 -0 -0 -0 0 0 0 0 0 0 0 0 0 0 0 0 0 0 0
0 0 0 0 0 0 0 0 0 0 0 0 0 0 0 0 -0 -0 -0 0 0 0 0 -0 -0 -0 -0 0 0 -0 -0 -0 -0 0 0 0 0 0 0 0 0 0 0 0 0 0 0
0 0 0 0 0 0 0 0 0 0 0 0 0 0 0 0 0 -0 -0 0 0 0 -0 -0 -0 -0 0 0 0 -0 -0 -0 -0 0 0 0 0 0 0 0 0 0 0 0 0 0 0
0 0 0 0 0 0 0 0 0 0 0 0 0 0 0 0 0 0 -0 0 0 0 -0 0 0 -0 -0 0 -0 -0 -0 -0 -0 -0 0 0 0 0 0 0 0 0 0 0 0 0 0
0 0 0 0 0 0 0 0 0 0 0 0 0 0 0 0 0 0 0 0 0 -0 0 0 -0 -0 -0 0 0 -0 -0 -0 -0 -0 0 0 0 0 0 0 0 0 0 0 0 0 0
0 0 0 0 0 0 0 0 0 0 0 0 0 0 0 0 0 0 0 0 0 0 0 -0 -0 0 0 -0 -0 -0 0 0 -0 -0 0 0 0 0 0 0 0 0 0 0 0 0 0
0 0 0 0 0 0 0 0 0 0 0 0 0 0 0 0 0 0 0 0 0 0 0 0 0 -0 -0 -0 -0 -0 0 0 -0 0 0 0 0 0 0 0 0 0 0 0 0 0 0
0 0 0 0 0 0 0 0 0 0 0 0 0 0 0 0 0 0 0 0 0 0 -0 -0 -0 0 -0 -0 -0 -0 0 0 -0 -0 -0 0 0 0 0 0 0 0 0 0 0 0 0
0 0 0 0 0 0 0 0 0 0 0 0 0 0 0 0 0 0 0 0 0 0 0 -0 0 -0 -0 -0 0 -0 0 -0 -0 -0 -0 -0 0 0 0 0 0 0 0 0 0 0 0
0 0 0 0 0 0 0 0 0 0 0 0 0 0 0 0 0 0 0 0 0 0 0 0 -0 0 -0 -0 -0 0 0 0 -0 -0 -0 -0 0 0 0 0 0 0 0 0 0 0 0
0 0 0 0 0 0 0 0 0 0 0 0 0 0 0 0 0 0 0 0 0 0 0 0 -0 -0 -0 -0 -0 0 0 0 0 0 0 0 0 0 0 0 0 0 0 0 0 0 0
0 0 0 0 0 0 0 0 0 0 0 0 0 0 0 0 0 0 0 0 0 0 0 0 0 0 -0 0 -0 0 0 0 0 0 0 0 0 0 0 0 0 0 0 0 0 0 0
0 0 0 0 0 0 0 0 0 0 0 0 0 0 0 0 0 0 0 0 0 0 0 0 0 0 0 -0 0 0 0 0 0 0 0 0 0 0 0 0 0 0 0 0 0 0 0
Wind_Speed_500mb
30 31 30 32 32 34 35 36 37 38 37 37 37 37 38 40 41 40 39 38 39 40 41 41 40 39 37 25 38 22 16 12 6 27 51 51 52 51 32 33 46 44 43 51 54 56 54
32 34 35 37 38 39 38 35 35 38 40 41 41 43 43 41 41 42 42 41 42 43 41 41 41 31 28 30 42 54 65 44 28 21 11 47 29 43 34 31 45 36 56 59 48 44 59
36 36 36 37 38 39 41 39 39 43 44 44 44 45 46 47 48 48 46 44 47 46 44 45 46 37 40 67 38 32 29 61 66 50 41 35 58 18 11 18 44 38 32 25 29 36 28
37 37 36 37 38 38 36 37 38 39 40 41 44 46 49 50 50 50 51 50 50 49 48 43 37 26 29 35 40 51 55 68 42 53 43 42 36 46 22 11 3 21 22 36 27 39 29
38 40 40 38 39 41 39 37 37 37 38 39 40 44 47 50 52 53 52 51 51 42 35 31 20 18 28 17 33 27 41 59 58 61 39 26 35 34 21 30 19 20 28 28 22 19 10
38 41 41 43 43 42 43 44 44 44 43 43 43 46 45 43 45 50 55 51 30 19 15 9 6 12 22 10 23 33 30 22 35 29 34 33 29 24 31 32 48 30 27 28 27 19 34
40 41 44 46 46 46 46 47 45 43 43 43 45 46 46 46 47 48 51 33 10 5 12 18 26 32 61 56 41 37 13 20 30 45 31 51 25 54 62 52 36 36 40 52 39 29 28
42 44 46 47 49 49 49 47 44 41 42 45 48 46 45 46 46 46 19 10 5 11 27 46 68 63 71 58 28 40 36 18 25 38 41 23 58 59 42 44 45 48 47 43 32 24 25
44 46 46 47 48 49 51 50 46 44 46 50 50 44 45 50 47 18 28 5 3 24 12 46 28 24 25 20 30 59 31 22 23 41 58 52 76 37 40 45 50 54 56 45 37 23 26
45 47 45 46 46 48 49 51 49 46 48 49 47 44 49 51 29 26 12 7 17 23 8 11 4 5 6 8 14 38 44 39 23 43 46 44 50 47 44 59 46 52 47 44 40 25 32
47 50 49 47 48 50 50 48 50 49 50 51 49 48 47 37 42 21 13 9 11 3 10 7 4 6 18 8 26 22 23 51 45 24 33 37 37 47 52 52 52 35 28 34 38 35 35
49 50 51 53 53 52 51 50 51 52 51 53 55 52 46 36 28 12 6 14 2 6 14 5 3 20 24 13 25 34 17 48 48 37 42 36 28 52 57 39 43 21 26 29 16 19 26
49 51 53 54 55 54 52 51 54 52 53 55 60 58 40 24 17 11 10 5 6 10 11 7 13 23 28 18 24 34 31 16 29 37 37 33 35 12 30 38 39 40 28 13 14 14 20
49 51 54 56 57 55 53 54 57 57 57 60 65 40 16 25 15 5 2 3 11 6 11 20 24 30 22 20 11 28 34 16 45 27 19 27 22 42 37 41 35 53 42 18 17 12 14
49 51 53 56 58 55 53 56 60 61 60 64 62 12 27 21 13 12 4 4 6 6 10 20 30 18 6 15 19 12 15 15 19 19 14 25 33 29 41 39 44 50 39 28 4 3 9
50 52 54 55 57 58 56 55 59 62 62 66 44 4 31 26 7 6 1 8 7 15 22 14 13 13 19 17 19 8 12 13 17 26 16 14 20 24 46 46 49 34 40 21 18 20 16
50 53 54 54 56 58 59 58 56 59 64 65 28 5 23 23 15 2 3 7 12 21 19 8 10 15 17 23 11 2 8 17 14 29 27 13 12 25 45 42 46 23 41 14 19 10 13
52 53 54 54 54 55 57 58 56 56 63 61 22 3 19 24 6 4 5 15 19 18 15 13 14 17 17 18 14 7 11 9 8 16 18 9 10 12 49 20 39 41 44 41 19 19 16
55 55 56 55 55 53 55 56 55 50 56 54 16 9 13 17 7 9 12 14 12 14 17 10 10 10 19 15 10 12 6 5 6 8 11 15 8 14 20 11 33 53 41 34 12 10 31
57 57 56 57 55 53 53 54 52 45 47 40 14 8 9 8 6 9 15 12 15 20 19 13 22 18 15 13 12 12 13 1 8 3 12 17 6 13 17 14 2 48 46 41 27 18 20
57 57 58 57 56 52 54 54 46 40 41 26 17 4 4 8 8 17 15 12 19 14 7 11 5 4 18 10 22 2 8 11 7 3 8 7 4 11 27 22 17 9 47 47 42 31 25
57 57 58 57 54 53 57 57 47 32 36 14 11 9 8 16 21 19 8 8 18 15 11 16 11 24 25 19 21 29 15 7 2 3 3 5 3 18 17 20 16 15 13 22 52 46 37
59 59 58 55 51 57 59 58 43 26 25 12 16 13 13 15 8 10 5 9 16 28 19 24 26 29 29 25 23 25 37 36 30 23 7 3 7 7 14 6 10 21 27 18 19 41 41
61 61 55 51 55 63 63 58 39 22 16 20 23 22 9 9 11 17 26 39 29 23 17 31 29 14 10 26 48 44 45 44 34 27 28 6 3 4 3 1 21 3 21 22 29 7 14
61 60 53 52 60 67 66 60 35 24 16 20 24 17 7 9 25 27 20 30 38 35 9 17 17 24 35 20 8 9 6 8 15 27 28 18 4 5 5 11 6 10 19 11 3 9 20
61 59 54 50 62 68 69 59 33 22 14 22 23 22 21 13 7 16 32 24 13 9 9 11 27 18 8 2 5 5 5 6 4 8 14 13 19 9 6 10 14 9 24 9 3 13 23
62 61 56 47 60 68 68 60 34 20 12 20 25 23 17 17 29 17 13 14 15 10 8 18 25 9 9 7 4 7 4 3 5 2 7 3 6 14 12 3 6 25 25 12 18 7 31
62 62 61 48 57 67 68 58 37 24 16 20 26 24 24 17 46 31 20 20 31 23 6 20 17 2 6 6 5 4 4 5 3 4 4 3 4 6 5 7 8 36 8 7 12 19 27
63 62 63 55 52 64 66 57 37 29 18 19 24 18 17 25 40 64 49 26 30 36 34 10 10 12 8 6 3 7 4 5 7 3 6 2 4 2 4 6 15 23 7 16 16 23 30
Wind_Direction_500mb
3 359 356 351 346 343 343 341 343 341 338 335 332 330 328 327 326 323 321 320 317 312 310 314 312 303 291 256 233 246 218 196 37 223 218 205 204 211 210 211 220 232 245 232 246 263 263
359 356 352 348 345 343 341 340 340 335 335 334 331 328 325 322 320 318 318 317 310 308 312 313 310 300 276 250 264 246 242 237 246 259 222 201 211 224 248 227 210 230 240 246 242 255 263
1 356 354 351 349 346 343 343 339 336 334 332 330 327 324 324 323 319 318 314 309 312 306 302 299 290 264 252 260 260 244 240 240 246 241 228 216 224 257 240 238 241 252 236 234 236 248
2 360 357 355 351 347 349 345 339 338 335 332 332 331 327 325 323 320 319 315 316 309 301 296 284 266 256 289 271 257 246 240 229 236 239 237 231 237 245 292 253 220 229 242 230 234 249
7 2 5 1 356 359 359 353 348 342 339 336 335 332 329 327 325 324 322 319 320 313 307 299 266 237 269 280 266 280 254 246 241 232 229 215 209 216 207 228 246 211 233 221 237 198 209
13 16 10 6 2 359 356 352 349 345 344 340 339 337 333 328 326 324 323 330 327 323 330 328 197 249 257 272 309 306 294 271 236 211 196 206 194 209 214 202 219 219 227 238 238 222 230
15 11 7 2 358 356 352 350 346 343 343 344 341 335 335 333 331 329 331 345 346 308 312 259 265 255 276 284 282 279 329 286 204 193 188 188 196 220 211 215 235 252 252 246 243 224 245
12 9 7 5 4 1 357 354 350 347 346 345 340 334 331 330 331 331 2 25 35 332 300 279 276 258 265 275 294 268 249 206 190 207 189 176 221 219 222 218 224 231 244 243 250 247 253
12 11 11 8 7 2 359 355 351 347 344 341 339 337 331 325 327 332 330 292 328 325 262 292 259 263 253 243 240 269 203 204 217 211 195 198 224 202 201 211 214 224 230 237 244 264 263
15 13 10 8 3 355 353 353 351 347 342 338 336 331 328 325 324 317 354 157 321 318 289 275 247 272 311 232 237 278 230 211 217 221 207 227 224 195 204 218 206 231 221 242 246 254 260
15 13 11 5 359 354 351 349 349 347 344 341 338 332 325 320 305 304 307 308 294 205 297 77 130 333 325 226 329 323 254 216 225 201 196 219 199 200 206 208 202 236 221 229 236 240 264
11 10 9 5 360 356 353 352 350 349 346 343 342 338 327 321 303 336 315 307 195 205 245 313 44 344 332 29 349 337 284 220 224 242 229 224 203 195 208 198 199 184 216 210 222 237 247
7 5 4 3 1 358 356 355 354 350 346 343 341 336 327 326 290 297 311 341 194 232 330 10 344 329 317 354 2 342 319 220 219 200 227 220 225 209 194 194 191 189 179 176 210 218 255
6 6 4 2 360 357 358 357 355 350 347 341 343 341 18 360 339 265 190 165 228 260 278 347 338 321 308 6 44 336 328 308 214 243 242 209 193 205 190 194 187 188 185 189 194 197 225
4 4 3 1 360 356 356 357 354 351 347 343 347 47 17 350 356 131 155 224 279 298 356 330 323 305 298 1 345 357 341 298 28 245 268 212 224 189 184 180 166 191 203 192 213 37 254
1 -0 359 358 357 355 352 354 355 353 352 349 353 87 18 17 82 153 191 274 285 325 323 314 286 273 300 333 328 12 322 31 352 357 323 279 232 205 183 185 202 188 174 190 212 213 233
357 356 355 355 356 353 351 353 355 353 353 353 359 48 8 356 323 316 293 280 294 294 315 298 300 296 289 293 288 84 254 320 22 332 320 282 270 174 171 201 186 178 187 188 192 220 209
356 355 352 352 354 353 350 350 354 353 352 357 2 5 3 357 50 339 313 320 312 297 334 289 279 284 268 307 287 209 238 206 0 337 327 320 302 230 198 189 193 197 188 183 188 192 211
356 356 353 352 352 352 352 350 351 355 355 351 347 304 5 14 26 339 326 314 278 299 325 310 292 302 302 299 305 305 274 65 159 11 343 343 237 224 148 163 201 200 194 190 178 156 199
354 354 352 352 351 351 352 349 348 353 356 351 352 349 352 15 30 318 334 320 317 305 306 332 285 299 313 295 283 276 296 1 199 313 352 332 255 282 204 171 128 199 195 196 194 198 191
351 350 348 350 349 351 352 347 346 349 354 0 7 21 349 306 328 330 319 303 300 322 310 317 316 313 348 304 317 89 9 318 175 16 18 20 270 313 284 277 280 171 198 200 202 207 213
354 351 347 347 347 348 350 349 348 348 348 9 357 336 299 286 301 308 304 290 293 308 306 306 276 325 324 293 293 297 285 283 28 240 280 360 343 337 255 236 248 250 200 214 212 223 233
355 352 350 348 350 348 351 350 347 347 341 344 332 313 292 283 290 291 283 277 284 305 285 259 303 312 300 292 288 278 284 271 265 274 274 243 344 335 222 338 286 250 223 201 202 227 226
355 353 355 354 352 349 349 349 345 342 314 304 323 309 286 287 303 303 303 302 312 306 292 298 295 274 277 308 303 284 270 259 247 236 227 228 264 267 254 246 226 192 40 230 217 160 257
354 354 354 351 349 348 347 347 347 343 304 306 310 301 277 279 300 302 311 319 312 319 287 283 303 296 301 299 280 287 237 243 231 223 209 225 213 251 216 202 82 49 23 347 324 118 16
353 351 350 350 348 347 346 345 344 333 313 306 310 307 284 289 255 297 311 306 304 308 301 283 323 332 330 266 263 273 278 321 161 119 205 205 220 263 189 217 201 20 338 324 160 170 4
352 350 348 345 348 347 348 345 344 338 325 296 292 297 275 269 284 282 290 312 293 296 286 297 333 319 352 332 270 247 252 312 282 156 138 149 129 201 228 270 116 353 333 176 188 38 339
349 351 348 343 346 347 348 347 342 334 313 301 298 294 273 266 285 276 278 272 288 288 289 315 323 11 299 322 280 299 273 219 209 43 1 127 185 168 212 224 168 358 9 82 352 333 337
345 348 348 343 342 346 345 346 338 333 311 285 294 290 287 264 273 296 300 293 274 282 268 273 280 292 327 326 308 299 339 342 332 90 349 127 16 32 289 32 341 344 23 41 357 333 338
Wind_Speed_850mb
30 31 30 32 32 34 35 36 37 38 37 37 37 37 38 40 41 40 39 38 39 40 41 41 40 39 37 25 38 22 16 12 6 27 51 51 52 51 32 33 46 44 43 51 54 56 54
32 34 35 37 38 39 38 35 35 38 40 41 41 43 43 41 41 42 42 41 42 43 41 41 41 31 28 30 42 54 65 44 28 21 11 47 29 43 34 31 45 36 56 59 48 44 59
36 36 36 37 38 39 41 39 39 43 44 44 44 45 46 47 48 48 46 44 47 46 44 45 46 37 40 67 38 32 29 61 66 50 41 35 58 18 11 18 44 38 32 25 29 36 28
37 37 36 37 38 38 36 37 38 39 40 41 44 46 49 50 50 50 51 50 50 49 48 43 37 26 29 35 40 51 55 68 42 53 43 42 36 46 22 11 3 21 22 36 27 39 29
38 40 40 38 39 41 39 37 37 37 38 39 40 44 47 50 52 53 52 51 51 42 35 31 20 18 28 17 33 27 41 59 58 61 39 26 35 34 21 30 19 20 28 28 22 19 10
38 41 41 43 43 42 43 44 44 44 43 43 43 46 45 43 45 50 55 51 30 19 15 9 6 12 22 10 23 33 30 22 35 29 34 33 29 24 31 32 48 30 27 28 27 19 34
40 41 44 46 46 46 46 47 45 43 43 43 45 46 46 46 47 48 51 33 10 5 12 18 26 32 61 56 41 37 13 20 30 45 31 51 25 54 62 52 36 36 40 52 39 29 28
42 44 46 47 49 49 49 47 44 41 42 45 48 46 45 46 46 46 19 10 5 11 27 46 68 63 71 58 28 40 36 18 25 38 41 23 58 59 42 44 45 48 47 43 32 24 25
44 46 46 47 48 49 51 50 46 44 46 50 50 44 45 50 47 18 28 5 3 24 12 46 28 24 25 20 30 59 31 22 23 41 58 52 76 37 40 45 50 54 56 45 37 23 26
45 47 45 46 46 48 49 51 49 46 48 49 47 44 49 51 29 26 12 7 17 23 8 11 4 5 6 8 14 38 44 39 23 43 46 44 50 47 44 59 46 52 47 44 40 25 32
47 50 49 47 48 50 50 48 50 49 50 51 49 48 47 37 42 21 13 9 11 3 10 7 4 6 18 8 26 22 23 51 45 24 33 37 37 47 52 52 52 35 28 34 38 35 35
49 50 51 53 53 52 51 50 51 52 51 53 55 52 46 36 28 12 6 14 2 6 14 5 3 20 24 13 25 34 17 48 48 37 42 36 28 52 57 39 43 21 26 29 16 19 26
49 51 53 54 55 54 52 51 54 52 53 55 60 58 40 24 17 11 10 5 6 10 11 7 13 23 28 18 24 34 31 16 29 37 37 33 35 12 30 38 39 40 28 13 14 14 20
49 51 54 56 57 55 53 54 57 57 57 60 65 40 16 25 15 5 2 3 11 6 11 20 24 30 22 20 11 28 34 16 45 27 19 27 22 42 37 41 35 53 42 18 17 12 14
49 51 53 56 58 55 53 56 60 61 60 64 62 12 27 21 13 12 4 4 6 6 10 20 30 18 6 15 19 12 15 15 19 19 14 25 33 29 41 39 44 50 39 28 4 3 9
50 52 54 55 57 58 56 55 59 62 62 66 44 4 31 26 7 6 1 8 7 15 22 14 13 13 19 17 19 8 12 13 17 26 16 14 20 24 46 46 49 34 40 21 18 20 16
50 53 54 54 56 58 59 58 56 59 64 65 28 5 23 23 15 2 3 7 12 21 19 8 10 15 17 23 11 2 8 17 14 29 27 13 12 25 45 42 46 23 41 14 19 10 13
52 53 54 54 54 55 57 58 56 56 63 61 22 3 19 24 6 4 5 15 19 18 15 13 14 17 17 18 14 7 11 9 8 16 18 9 10 12 49 20 39 41 44 41 19 19 16
55 55 56 55 55 53 55 56 55 50 56 54 16 9 13 17 7 9 12 14 12 14 17 10 10 10 19 15 10 12 6 5 6 8 11 15 8 14 20 11 33 53 41 34 12 10 31
57 57 56 57 55 53 53 54 52 45 47 40 14 8 9 8 6 9 15 12 15 20 19 13 22 18 15 13 12 12 13 1 8 3 12 17 6 13 17 14 2 48 46 41 27 18 20
57 57 58 57 56 52 54 54 46 40 41 26 17 4 4 8 8 17 15 12 19 14 7 11 5 4 18 10 22 2 8 11 7 3 8 7 4 11 27 22 17 9 47 47 42 31 25
57 57 58 57 54 53 57 57 47 32 36 14 11 9 8 16 21 19 8 8 18 15 11 16 11 24 25 19 21 29 15 7 2 3 3 5 3 18 17 20 16 15 13 22 52 46 37
59 59 58 55 51 57 59 58 43 26 25 12 16 13 13 15 8 10 5 9 16 28 19 24 26 29 29 25 23 25 37 36 30 23 7 3 7 7 14 6 10 21 27 18 19 41 41
61 61 55 51 55 63 63 58 39 22 16 20 23 22 9 9 11 17 26 39 29 23 17 31 29 14 10 26 48 44 45 44 34 27 28 6 3 4 3 1 21 3 21 22 29 7 14
61 60 53 52 60 67 66 60 35 24 16 20 24 17 7 9 25 27 20 30 38 35 9 17 17 24 35 20 8 9 6 8 15 27 28 18 4 5 5 11 6 10 19 11 3 9 20
61 59 54 50 62 68 69 59 33 22 14 22 23 22 21 13 7 16 32 24 13 9 9 11 27 18 8 2 5 5 5 6 4 8 14 13 19 9 6 10 14 9 24 9 3 13 23
62 61 56 47 60 68 68 60 34 20 12 20 25 23 17 17 29 17 13 14 15 10 8 18 25 9 9 7 4 7 4 3 5 2 7 3 6 14 12 3 6 25 25 12 18 7 31
62 62 61 48 57 67 68 58 37 24 16 20 26 24 24 17 46 31 20 20 31 23 6 20 17 2 6 6 5 4 4 5 3 4 4 3 4 6 5 7 8 36 8 7 12 19 27
63 62 63 55 52 64 66 57 37 29 18 19 24 18 17 25 40 64 49 26 30 36 34 10 10 12 8 6 3 7 4 5 7 3 6 2 4 2 4 6 15 23 7 16 16 23 30
Wind_Direction_850mb
3 359 356 351 346 343 343 341 343 341 338 335 332 330 328 327 326 323 321 320 317 312 310 314 312 303 291 256 233 246 218 196 37 223 218 205 204 211 210 211 220 232 245 232 246 263 263
359 356 352 348 345 343 341 340 340 335 335 334 331 328 325 322 320 318 318 317 310 308 312 313 310 300 276 250 264 246 242 237 246 259 222 201 211 224 248 227 210 230 240 246 242 255 263
1 356 354 351 349 346 343 343 339 336 334 332 330 327 324 324 323 319 318 314 309 312 306 302 299 290 264 252 260 260 244 240 240 246 241 228 216 224 257 240 238 241 252 236 234 236 248
2 360 357 355 351 347 349 345 339 338 335 332 332 331 327 325 323 320 319 315 316 309 301 296 284 266 256 289 271 257 246 240 229 236 239 237 231 237 245 292 253 220 229 242 230 234 249
7 2 5 1 356 359 359 353 348 342 339 336 335 332 329 327 325 324 322 319 320 313 307 299 266 237 269 280 266 280 254 246 241 232 229 215 209 216 207 228 246 211 233 221 237 198 209
13 16 10 6 2 359 356 352 349 345 344 340 339 337 333 328 326 324 323 330 327 323 330 328 197 249 257 272 309 306 294 271 236 211 196 206 194 209 214 202 219 219 227 238 238 222 230
15 11 7 2 358 356 352 350 346 343 343 344 341 335 335 333 331 329 331 345 346 308 312 259 265 255 276 284 282 279 329 286 204 193 188 188 196 220 211 215 235 252 252 246 243 224 245
12 9 7 5 4 1 357 354 350 347 346 345 340 334 331 330 331 331 2 25 35 332 300 279 276 258 265 275 294 268 249 206 190 207 189 176 221 219 222 218 224 231 244 243 250 247 253
12 11 11 8 7 2 359 355 351 347 344 341 339 337 331 325 327 332 330 292 328 325 262 292 259 263 253 243 240 269 203 204 217 211 195 198 224 202 201 211 214 224 230 237 244 264 263
15 13 10 8 3 355 353 353 351 347 342 338 336 331 328 325 324 317 354 157 321 318 289 275 247 272 311 232 237 278 230 211 217 221 207 227 224 195 204 218 206 231 221 242 246 254 260
15 13 11 5 359 354 351 349 349 347 344 341 338 332 325 320 305 304 307 308 294 205 297 77 130 333 325 226 329 323 254 216 225 201 196 219 199 200 206 208 202 236 221 229 236 240 264
11 10 9 5 360 356 353 352 350 349 346 343 342 338 327 321 303 336 315 307 195 205 245 313 44 344 332 29 349 337 284 220 224 242 229 224 203 195 208 198 199 184 216 210 222 237 247
7 5 4 3 1 358 356 355 354 350 346 343 341 336 327 326 290 297 311 341 194 232 330 10 344 329 317 354 2 342 319 220 219 200 227 220 225 209 194 194 191 189 179 176 210 218 255
6 6 4 2 360 357 358 357 355 350 347 341 343 341 18 360 339 265 190 165 228 260 278 347 338 321 308 6 44 336 328 308 214 243 242 209 193 205 190 194 187 188 185 189 194 197 225
4 4 3 1 360 356 356 357 354 351 347 343 347 47 17 350 356 131 155 224 279 298 356 330 323 305 298 1 345 357 341 298 28 245 268 212 224 189 184 180 166 191 203 192 213 37 254
1 -0 359 358 357 355 352 354 355 353 352 349 353 87 18 17 82 153 191 274 285 325 323 314 286 273 300 333 328 12 322 31 352 357 323 279 232 205 183 185 202 188 174 190 212 213 233
357 356 355 355 356 353 351 353 355 353 353 353 359 48 8 356 323 316 293 280 294 294 315 298 300 296 289 293 288 84 254 320 22 332 320 282 270 174 171 201 186 178 187 188 192 220 209
356 355 352 352 354 353 350 350 354 353 352 357 2 5 3 357 50 339 313 320 312 297 334 289 279 284 268 307 287 209 238 206 0 337 327 320 302 230 198 189 193 197 188 183 188 192 211
356 356 353 352 352 352 352 350 351 355 355 351 347 304 5 14 26 339 326 314 278 299 325 310 292 302 302 299 305 305 274 65 159 11 343 343 237 224 148 163 201 200 194 190 178 156 199
354 354 352 352 351 351 352 349 348 353 356 351 352 349 352 15 30 318 334 320 317 305 306 332 285 299 313 295 283 276 296 1 199 313 352 332 255 282 204 171 128 199 195 196 194 198 191
351 350 348 350 349 351 352 347 346 349 354 0 7 21 349 306 328 330 319 303 300 322 310 317 316 313 348 304 317 89 9 318 175 16 18 20 270 313 284 277 280 171 198 200 202 207 213
354 351 347 347 347 348 350 349 348 348 348 9 357 336 299 286 301 308 304 290 293 308 306 306 276 325 324 293 293 297 285 283 28 240 280 360 343 337 255 236 248 250 200 214 212 223 233
355 352 350 348 350 348 351 350 347 347 341 344 332 313 292 283 290 291 283 277 284 305 285 259 303 312 300 292 288 278 284 271 265 274 274 243 344 335 222 338 286 250 223 201 202 227 226
355 353 355 354 352 349 349 349 345 342 314 304 323 309 286 287 303 303 303 302 312 306 292 298 295 274 277 308 303 284 270 259 247 236 227 228 264 267 254 246 226 192 40 230 217 160 257
354 354 354 351 349 348 347 347 347 343 304 306 310 301 277 279 300 302 311 319 312 319 287 283 303 296 301 299 280 287 237 243 231 223 209 225 213 251 216 202 82 49 23 347 324 118 16
353 351 350 350 348 347 346 345 344 333 313 306 310 307 284 289 255 297 311 306 304 308 301 283 323 332 330 266 263 273 278 321 161 119 205 205 220 263 189 217 201 20 338 324 160 170 4
352 350 348 345 348 347 348 345 344 338 325 296 292 297 275 269 284 282 290 312 293 296 286 297 333 319 352 332 270 247 252 312 282 156 138 149 129 201 228 270 116 353 333 176 188 38 339
349 351 348 343 346 347 348 347 342 334 313 301 298 294 273 266 285 276 278 272 288 288 289 315 323 11 299 322 280 299 273 219 209 43 1 127 185 168 212 224 168 358 9 82 352 333 337
345 348 348 343 342 346 345 346 338 333 311 285 294 290 287 264 273 296 300 293 274 282 268 273 280 292 327 326 308 299 339 342 332 90 349 127 16 32 289 32 341 344 23 41 357 333 338